COSMOS 1362

Satellite information

Favourite Embed

Satellite Type and Status

PAYLOADIN ORBIT

Key statistics

Satellite COSMOS 1362 at a glance.

Uptime

15882

Days in orbit

Revolutions

≈ 12.5

Per day

Orbit

LEO

Low Earth Orbit

Inclination

74.0

Latest

Satellite identification and parameters

Extended collection of information and parameters for COSMOS 1362.

Object identification

Identified? True

Debris? False

Object name: COSMOS 1362

International designator: 1982-040F

Object number (NORAD): 13165

Object ID (CCSDS): 13165

Country: COMMONWEALTH OF INDEPENDENT STATES (CIS)

Current information (Y/N): Y

RCS size: MEDIUM

Orbital parameters

Period: 115.555 minutes

Inclination: 74.0134 deg

SMA: 7858.749 km

Apoapsis: 1495.309 km

Periapsis: 1465.92 km

RAAN: 52.6193 deg

Eccentricy: 0.0018698

Argument of periapsis: 292.2203 deg

Mean anomaly: 78.5644 deg

Mean motion: 12.46156544 rev/day

Mean motion (dot): 0.00000003 rev/day2

B* drag term: 0.00013270571 1/REarth

Two-line elements (TLE)

Creation date: Oct. 28, 2025, 7:11 p.m.

Reference frame: TEME

Reference center: EARTH

Epoch: Oct. 28, 2025, 1:19 p.m. UTC

TLE line 0: 0 COSMOS 1362

TLE line 1: 1 13165U 82040F 25301.55498279 .00000003 00000-0 13271-3 0 9990

TLE line 2: 2 13165 74.0134 52.6193 0018698 292.2203 78.5644 12.46156544977864

Live tracking on map

Real-time ground track for satellite COSMOS 1362.

In-orbit conjunctions

A list of the most updated potential collisions computed for object COSMOS 1362.

Target Orbit TCA Probability of collision Miss distance Type
COSMOS 1754 LEO 2025-01-28 06:54:36 0.01018084 62.0 (m) PAYLOAD

Associated space launch

Military communications satellites

COSMOS 1362 was lifted into orbit during the mission ‘Kosmos-3M | Strela-1M 233-240’, on board a Kosmos-3M space rocket.

The launch took place on May 6, 1982, 6:07 p.m. from 132/2.

For more information about the launch, click the button.

Launch to space Kosmos-3M | Strela-1M 233-240
Kosmos-3M | Strela-1M 233-240

Agency: N/A

Status: Launch Successful

Launch date: May 6, 1982, 6:07 p.m. UTC

Rocket: Kosmos-3M

Launch pad: 132/2

Location: Plesetsk Cosmodrome, Russian Federation

...

Latest news about this satellite

There are no fresh news available about this satellite. Check back as we update our databases every day.


Newsletter sign-up

Weekly statistics, charts and insights to help you stay on top of the space industry.